Location: Azul
(36.7830°S, 59.8500°W)
Time: 15:25:11
(UTC-03:00)

BUGSAT 1 - Visible Passes

Search period start: 26 May 2022 00:00
Search period end: 05 June 2022 00:00
Orbit: 555 x 600 km, 98.1° (Epoch: 25 May)

Date Brightness Start Highest point End Pass type
(mag) Time Alt. Az. Time Alt. Az. Time Alt. Az.
26 May ? 06:03:02 10° N 06:06:41 59° NW 06:06:41 59° NW visible
26 May ? 19:21:39 10° S 19:25:21 29° WSW 19:28:59 10° NW visible
27 May ? 06:07:09 10° N 06:10:47 53° NW 06:10:47 53° NW visible
27 May ? 19:25:51 10° SSW 19:29:25 26° WSW 19:32:55 10° NW visible
28 May ? 06:11:17 10° N 06:14:53 48° WNW 06:14:53 48° WNW visible
28 May ? 19:30:02 10° SSW 19:33:28 24° WSW 19:36:50 10° WNW visible
29 May ? 04:42:29 10° E 04:42:42 11° E 04:42:42 11° E visible
29 May ? 06:15:25 10° N 06:18:59 43° WNW 06:18:59 43° WNW visible
29 May ? 19:34:14 10° SSW 19:37:30 22° WSW 19:40:43 10° WNW visible
30 May ? 04:46:13 10° ENE 04:46:47 12° E 04:46:47 12° E visible
30 May ? 06:19:33 10° N 06:23:03 39° WNW 06:23:03 39° WNW visible
30 May ? 19:38:27 10° SSW 19:41:32 20° WSW 19:44:34 10° WNW visible
31 May ? 04:50:00 10° ENE 04:50:52 13° E 04:50:52 13° E visible
31 May ? 06:23:42 10° NNW 06:27:08 35° WNW 06:27:08 35° WNW visible
31 May ? 19:42:40 10° SSW 19:45:33 18° WSW 19:48:23 10° WNW visible
01 Jun ? 04:53:47 10° ENE 04:54:56 15° E 04:54:56 15° E visible
01 Jun ? 06:27:51 10° NNW 06:31:12 32° WNW 06:31:12 32° WNW visible
01 Jun ? 18:10:43 10° SSE 18:14:42 38° E 18:18:34 10° NNE visible
01 Jun ? 19:46:54 10° SSW 19:49:33 16° WSW 19:52:10 10° WNW visible
02 Jun ? 04:57:36 10° ENE 04:59:00 16° E 04:59:00 16° E visible
02 Jun ? 06:32:00 10° NNW 06:35:16 29° WNW 06:35:16 29° WNW visible
02 Jun ? 18:14:42 10° SSE 18:18:45 42° E 18:22:42 10° N visible
02 Jun ? 19:51:10 10° SSW 19:53:33 15° WSW 19:55:54 10° W visible
03 Jun ? 05:01:26 10° ENE 05:03:03 18° E 05:03:03 18° E visible
03 Jun ? 06:36:11 10° NNW 06:39:19 26° WNW 06:39:19 26° WNW visible
03 Jun ? 18:18:41 10° SSE 18:22:48 47° E 18:26:47 10° N visible
03 Jun ? 19:55:28 10° SW 19:57:32 13° WSW 19:59:35 10° W visible
04 Jun ? 05:05:17 10° ENE 05:07:06 20° ENE 05:07:06 20° ENE visible
04 Jun ? 06:40:21 10° NNW 06:43:23 24° WNW 06:43:23 24° WNW visible
04 Jun ? 18:22:40 10° SSE 18:26:50 52° E 18:30:52 10° N visible
04 Jun ? 19:59:50 10° SW 20:01:31 12° WSW 20:03:11 10° W visible
